FW4365 Weather Reports


time (UTC)temp
C
wind
direction
speed
KPH
gust
KPH
rain 1hr
cm
rain 24hr
cm
rain mn
cm
humidity
%
barometer
mb
20260504070108 11 65 3.2 6.4 0.00 0.00 0.00 58 1016.7
20260504044502 10 63 0.0 1.6 0.00 0.00 0.00 57 1016.9
20260504043056 10 64 0.0 3.2 0.00 0.00 0.00 58 1016.8
20260504041510 10 63 1.6 4.8 0.00 0.00 0.00 62 1016.8
20260504040056 9 75 0.0 3.2 0.00 0.00 0.00 67 1016.7
20260504034516 8 75 0.0 1.6 0.00 0.00 0.00 68 1016.5
20260504033101 9 75 0.0 1.6 0.00 0.00 0.00 66 1016.3
20260504031524 9 75 0.0 1.6 0.00 0.00 0.00 66 1016.2
20260504030124 9 75 0.0 0.0 0.00 0.00 0.00 65 1016.2
20260504024542 10 75 0.0 0.0 0.00 0.00 0.00 64 1016.2
20260504023002 10 75 0.0 0.0 0.00 0.00 0.00 64 1016.1
20260504021545 10 75 0.0 0.0 0.00 0.00 0.00 61 1016.1
20260504020134 10 75 0.0 0.0 0.00 0.00 0.00 59 1016.1
20260504014603 10 75 0.0 0.0 0.00 0.00 0.00 56 1016.1
20260504013018 11 75 0.0 0.0 0.00 0.00 0.00 52 1016.0
20260504011612 11 75 0.0 1.6 0.00 0.00 0.00 50 1015.8
20260504010031 12 75 0.0 1.6 0.00 0.00 0.00 48 1015.8
20260504004521 12 75 0.0 1.6 0.00 0.00 0.00 43 1015.5
20260504003119 13 75 0.0 3.2 0.00 0.00 0.00 38 1015.4
20260504001525 14 75 0.0 4.8 0.00 0.00 0.00 34 1015.2
20260504000132 15 75 3.2 11.3 0.00 0.00 0.00 33 1015.1
20260503234548 15 85 1.6 4.8 0.00 0.00 0.00 32 1015.0
20260503233027 16 72 6.4 12.9 0.00 0.00 0.00 31 1014.8
20260503231622 16 81 1.6 9.7 0.00 0.00 0.00 31 1014.7
20260503230037 16 82 4.8 16.1 0.00 0.00 0.00 30 1014.8
20260503224611 16 91 6.4 16.1 0.00 0.00 0.00 29 1014.9
20260503223027 17 102 1.6 22.5 0.00 0.00 0.00 29 1014.6
20260503221631 17 84 6.4 24.1 0.00 0.00 0.00 29 1014.7
20260503220050 17 77 6.4 19.3 0.00 0.00 0.00 29 1014.9
20260503214511 17 94 3.2 16.1 0.00 0.00 0.00 28 1014.9
20260503213111 17 98 4.8 14.5 0.00 0.00 0.00 29 1014.7
20260503211526 16 53 3.2 16.1 0.00 0.00 0.00 31 1014.8
20260503210127 16 81 4.8 17.7 0.00 0.00 0.00 31 1014.8
20260503204539 16 154 4.8 22.5 0.00 0.00 0.00 33 1014.9
20260503203135 16 74 8.0 32.2 0.00 0.00 0.00 31 1014.9
20260503201552 16 89 6.4 22.5 0.00 0.00 0.00 32 1015.2
20260503200013 15 46 16.1 30.6 0.00 0.00 0.00 31 1015.3
20260503194604 15 107 4.8 20.9 0.00 0.00 0.00 33 1015.5
20260503193019 15 53 9.7 24.1 0.00 0.00 0.00 33 1015.6
20260503191609 15 25 12.9 25.7 0.00 0.00 0.00 33 1016.0
20260503190016 14 107 8.0 22.5 0.00 0.00 0.00 35 1016.1
20260503183017 13 92 6.4 20.9 0.00 0.00 0.00 35 1016.6
20260503181614 13 113 6.4 20.9 0.00 0.00 0.00 36 1016.7
20260503180019 13 119 9.7 24.1 0.00 0.00 0.00 37 1016.7
20260503174610 13 108 6.4 16.1 0.00 0.00 0.00 34 1016.8
20260503173025 13 92 9.7 30.6 0.00 0.00 0.00 34 1016.8
20260503171610 13 47 9.7 25.7 0.00 0.00 0.00 34 1017.0
20260503140116 10 140 6.4 20.9 0.00 0.00 0.00 45 1017.8
20260503130144 8 160 11.3 24.1 0.00 0.00 0.00 51 1017.8
20260503081534 6 99 3.2 14.5 0.00 0.00 0.00 65 1014.9
20260503080120 7 79 1.6 14.5 0.00 0.00 0.00 64 1014.8
20260503071521 7 80 3.2 9.7 0.00 0.00 0.00 64 1014.3